This is the latest recevied weather packets stored in our database for station/object N8VDS-10. If no packets are shown the sender has not sent any weather packets the latest 10 day(s).
| Time | Temp. | Humidity | Pressure | Rain* | Wind** | Luminosity | Snow |
|---|---|---|---|---|---|---|---|
| 1777827769 | 14.44° C | 42% | 1014.3 hPa | 0 mm | - | 596 W/m² | - |
| 1777827466 | 15° C | 42% | 1014.4 hPa | 0 mm | - | 431 W/m² | - |
| 1777827163 | 15° C | 41% | 1014.5 hPa | 0 mm | - | 612 W/m² | - |
| 1777826859 | 14.44° C | 41% | 1014.5 hPa | 0 mm | - | 713 W/m² | - |
| 1777826557 | 13.89° C | 43% | 1014.5 hPa | 0 mm | - | 353 W/m² | - |
| 1777826252 | 13.89° C | 43% | 1014.6 hPa | 0 mm | - | 322 W/m² | - |
| 1777825951 | 13.89° C | 43% | 1014.8 hPa | 0 mm | - | 369 W/m² | - |
| 1777825647 | 13.89° C | 43% | 1014.9 hPa | 0 mm | - | 404 W/m² | - |
| 1777825346 | 13.89° C | 44% | 1014.9 hPa | 0 mm | - | 447 W/m² | - |
| 1777825042 | 13.33° C | 43% | 1015.1 hPa | 0 mm | - | 440 W/m² | - |
| 1777824738 | 13.33° C | 43% | 1015.1 hPa | 0 mm | - | 372 W/m² | - |
| 1777824435 | 13.33° C | 43% | 1015.2 hPa | 0 mm | - | 381 W/m² | - |
| 1777824131 | 13.89° C | 43% | 1015.3 hPa | 0 mm | - | 357 W/m² | - |
| 1777823827 | 13.33° C | 43% | 1015.3 hPa | 0 mm | - | 409 W/m² | - |
| 1777823525 | 12.78° C | 43% | 1015.1 hPa | 0 mm | - | 534 W/m² | - |
| 1777823221 | 12.78° C | 44% | 1015.3 hPa | 0 mm | - | 476 W/m² | - |
| 1777822920 | 12.22° C | 44% | 1015.5 hPa | 0 mm | - | 356 W/m² | - |
| 1777822617 | 12.22° C | 44% | 1015.3 hPa | 0 mm | - | 269 W/m² | - |
| 1777822315 | 12.22° C | 43% | 1015.6 hPa | 0 mm | - | 318 W/m² | - |
| 1777822012 | 12.22° C | 43% | 1015.5 hPa | 0 mm | - | 321 W/m² | - |
| 1777821710 | 12.22° C | 44% | 1015.6 hPa | 0 mm | - | 264 W/m² | - |
| 1777821407 | 12.22° C | 45% | 1015.6 hPa | 0 mm | - | 253 W/m² | - |
| 1777821104 | 11.67° C | 44% | 1015.7 hPa | 0 mm | - | 185 W/m² | - |
| 1777820801 | 12.22° C | 45% | 1015.6 hPa | 0 mm | - | 167 W/m² | - |
| 1777820497 | 12.22° C | 44% | 1015.7 hPa | 0 mm | - | 133 W/m² | - |
* Rain latest hour (hover to see other rain measurements)
** Current wind speed in m/s (hover to see current wind gust speed)